Star Princess — ZCDD6 — position and weather

sailwx.info

Track history (hours):
 
Tides and Currents Weather Stations Pressure Air Temp Water Temp Dewpoint Dewpoint Depression Visibility Wind Speed Wind Dir Waves Ship Positions

Star Princess

Operator: Princess Cruises

Last reported at 2014-Oct-25 02:29 UTC. Time now 2014-Oct-25 05:33 UTC.
Position N 36°12' W 123°44'.

Length 289.6 m; beam 36 m; draft 8.4 m.

Type: Ship. MMSI: 310361000.

Date/timePositionNaut miles runAvg speedWind from/ knotsBaromVisibWave heightAir tempDewpointWater temp
2014-Oct-25 02:29N 36°12' W 123°44'1212.9
2014-Oct-25 01:33N 36°04' W 123°54'1212.0
2014-Oct-25 00:33N 35°53' W 124°00'1212.5
2014-Oct-24 23:33N 35°41' W 124°00'1212.3
2014-Oct-24 22:33N 35°28' W 124°00'1312.5
2014-Oct-24 21:32N 35°15' W 123°60'1312.6
2014-Oct-24 20:31N 35°03' W 123°60'1312.4
2014-Oct-24 19:30N 34°50' W 123°60'10111.2
2014-Oct-24 10:30N 34°30' W 121°59'1212.5
2014-Oct-24 09:32N 34°29' W 121°45'1612.3
2014-Oct-24 08:13N 34°30' W 121°25'812.1
2014-Oct-24 07:32N 34°30' W 121°15'1212.5
2014-Oct-24 06:33N 34°28' W 121°00'1119.4
2014-Oct-24 06:00N 34°24' W 120°48'2 4.7 260 / 111018.410.8 18.016.218.0
2014-Oct-24 05:33N 34°25' W 120°46'1212.4
2014-Oct-24 04:33N 34°22' W 120°31'1212.5
2014-Oct-24 03:33N 34°19' W 120°16'1312.6
2014-Oct-24 02:33N 34°20' W 120°01'1312.6
2014-Oct-24 01:33N 34°22' W 119°46'5 4.5
2014-Oct-24 00:31N 34°24' W 119°41'0 0.0
2014-Oct-23 23:33N 34°24' W 119°41'0 0.0
2014-Oct-23 22:33N 34°24' W 119°41'0 0.0
2014-Oct-23 21:32N 34°24' W 119°41'0 0.0
2014-Oct-23 20:29N 34°24' W 119°41'0 0.0
2014-Oct-23 19:31N 34°24' W 119°41'0 0.0
2014-Oct-23 18:31N 34°24' W 119°41'0 0.0
2014-Oct-23 17:31N 34°24' W 119°41'0 0.0
2014-Oct-23 16:33N 34°24' W 119°41'0 0.0
2014-Oct-23 15:33N 34°24' W 119°41'0 0.0
2014-Oct-23 14:34N 34°24' W 119°41'2 1.7
2014-Oct-23 13:33N 34°22' W 119°40'1212.0
2014-Oct-23 12:33N 34°11' W 119°36'1212.2
2014-Oct-23 11:34N 34°06' W 119°22'1212.4
2014-Oct-23 10:33N 34°01' W 119°09'1111.2
2014-Oct-23 09:34N 33°51' W 119°03'1414.4
2014-Oct-23 08:33N 33°38' W 118°54'1717.0
2014-Oct-23 07:33N 33°24' W 118°43'1716.6
2014-Oct-23 06:33N 33°14' W 118°28'1119.7
2014-Oct-23 06:00N 33°06' W 118°18'511.9 170 / 141018.410.8 20.218.122.0
2014-Oct-23 05:33N 33°03' W 118°13'1616.4
2014-Oct-23 04:33N 32°55' W 117°56'1616.4
2014-Oct-23 03:33N 32°47' W 117°39'1515.4
2014-Oct-23 02:33N 32°39' W 117°23'8 7.8
2014-Oct-23 01:33N 32°41' W 117°14'3 3.2
2014-Oct-23 00:32N 32°43' W 117°10'0 0.0
2014-Oct-22 23:31N 32°43' W 117°10'0 0.0
2014-Oct-22 22:31N 32°43' W 117°10'0 0.0
2014-Oct-22 21:33N 32°43' W 117°10'0 0.0
2014-Oct-22 20:33N 32°43' W 117°10'0 0.0
2014-Oct-22 19:32N 32°43' W 117°10'0 0.0
2014-Oct-22 18:32N 32°43' W 117°10'0 0.0
2014-Oct-22 17:32N 32°43' W 117°10'0 0.0
2014-Oct-22 16:28N 32°43' W 117°10'0 0.0
2014-Oct-22 15:31N 32°43' W 117°10'0 0.0
2014-Oct-22 14:31N 32°43' W 117°10'0 0.1
2014-Oct-22 13:33N 32°43' W 117°11'7 7.0
2014-Oct-22 12:33N 32°37' W 117°15'1111.0
2014-Oct-22 11:33N 32°29' W 117°24'1212.4
2014-Oct-22 10:33N 32°22' W 117°36'1211.4
2014-Oct-22 09:31N 32°19' W 117°49'8 8.3
2014-Oct-22 08:33N 32°22' W 117°58'1211.3
2014-Oct-22 07:30N 32°34' W 117°60'1111.5
2014-Oct-22 06:33N 32°44' W 118°01'1111.4
2014-Oct-22 05:33N 32°56' W 118°02'1211.6
2014-Oct-22 04:33N 33°07' W 118°03'1111.3
2014-Oct-22 03:33N 33°18' W 118°06'1211.5
2014-Oct-22 02:33N 33°29' W 118°11'1111.1
2014-Oct-22 01:33N 33°40' W 118°12'5 4.7
2014-Oct-22 00:32N 33°45' W 118°11'0 0.0
2014-Oct-21 23:32N 33°45' W 118°11'0 0.0
2014-Oct-21 22:28N 33°45' W 118°11'0 0.0
2014-Oct-21 21:28N 33°45' W 118°11'0 0.0
2014-Oct-21 20:28N 33°45' W 118°11'0 0.0
2014-Oct-21 19:33N 33°45' W 118°11'0 0.0
2014-Oct-21 18:33N 33°45' W 118°11'0 0.0
2014-Oct-21 17:29N 33°45' W 118°11'0 0.0
2014-Oct-21 16:32N 33°45' W 118°11'0 0.0
2014-Oct-21 15:31N 33°45' W 118°11'0 0.0
2014-Oct-21 14:34N 33°45' W 118°11'0 0.2
2014-Oct-21 13:33N 33°45' W 118°11'5 5.5
2014-Oct-21 12:33N 33°39' W 118°10'1312.4
2014-Oct-21 11:28N 33°27' W 118°06'1212.9
2014-Oct-21 10:32N 33°15' W 118°01'1212.3
2014-Oct-21 09:33N 33°04' W 117°55'1212.2
2014-Oct-21 08:33N 32°53' W 117°49'1212.1
2014-Oct-21 07:33N 32°41' W 117°49'1212.3
2014-Oct-21 06:33N 32°29' W 117°45'1323.7
2014-Oct-21 06:00N 32°18' W 117°36'2 3.6 210 / 71017.010.8 19.816.522.0
2014-Oct-21 05:32N 32°18' W 117°38'19 0.9
2014-Oct-20 09:08N 31°59' W 117°37'814.3
2014-Oct-20 08:33N 32°03' W 117°46'1414.3
2014-Oct-20 07:33N 32°09' W 118°01'1414.0
2014-Oct-20 06:34N 32°15' W 118°16'1414.2
2014-Oct-20 05:33N 32°21' W 118°31'1414.2
2014-Oct-20 04:33N 32°27' W 118°47'1414.3
2014-Oct-20 03:33N 32°32' W 119°02'1414.4
2014-Oct-20 02:33N 32°39' W 119°17'1414.4
2014-Oct-20 01:33N 32°45' W 119°33'1414.5
2014-Oct-20 00:33N 32°51' W 119°48'1414.0
2014-Oct-19 23:33N 33°01' W 120°00'1414.1
2014-Oct-19 22:33N 33°12' W 120°12'1514.5
2014-Oct-19 21:33N 33°22' W 120°24'1514.4
2014-Oct-19 20:33N 33°33' W 120°36'22914.1
2014-Oct-19 04:18N 36°54' W 122°51'1114.1
2014-Oct-19 03:33N 37°04' W 122°49'1614.2
2014-Oct-19 02:28N 37°19' W 122°44'1314.4
2014-Oct-19 01:33N 37°32' W 122°43'1313.3
2014-Oct-19 00:33N 37°45' W 122°40'1212.1
2014-Oct-18 23:33N 37°49' W 122°25'1 1.2
2014-Oct-18 22:32N 37°48' W 122°24'0 0.0
2014-Oct-18 21:32N 37°48' W 122°24'0 0.0
2014-Oct-18 20:31N 37°48' W 122°24'0 0.0
2014-Oct-18 19:31N 37°48' W 122°24'0 0.0
2014-Oct-18 18:30N 37°48' W 122°24'0 0.0
2014-Oct-18 17:32N 37°48' W 122°24'0 0.0
2014-Oct-18 16:28N 37°48' W 122°24'0 0.0
2014-Oct-18 15:31N 37°48' W 122°24'0 0.0
2014-Oct-18 14:33N 37°48' W 122°24'0 0.0
2014-Oct-18 13:33N 37°48' W 122°24'0 0.3
2014-Oct-18 12:33N 37°49' W 122°24'1111.0
2014-Oct-18 11:33N 37°46' W 122°38'1110.9
2014-Oct-18 10:32N 37°35' W 122°40'1212.5
2014-Oct-18 09:33N 37°23' W 122°40'1312.4
2014-Oct-18 08:32N 37°10' W 122°42'1212.3
2014-Oct-18 07:33N 36°59' W 122°47'1212.3
2014-Oct-18 06:33N 36°49' W 122°57'813.6
2014-Oct-18 06:00N 36°42' W 123°00'613.8 200 / 271018.710.8 17.616.618.0
2014-Oct-18 05:33N 36°40' W 123°07'1212.3
2014-Oct-18 04:33N 36°31' W 123°18'1812.4
2014-Oct-18 03:05N 36°18' W 123°34'1912.4
2014-Oct-18 01:33N 36°05' W 123°50'1311.5
2014-Oct-18 00:26N 35°52' W 123°55'1112.5
2014-Oct-17 23:32N 35°41' W 123°53'1212.5
2014-Oct-17 22:32N 35°29' W 123°52'1312.3
2014-Oct-17 21:31N 35°17' W 123°50'89 9.5
2014-Oct-17 12:08N 34°30' W 122°17'2212.3
2014-Oct-17 10:21N 34°30' W 121°50'1012.5
2014-Oct-17 09:33N 34°30' W 121°38'1111.5
2014-Oct-17 08:33N 34°30' W 121°24'1311.8
2014-Oct-17 07:29N 34°30' W 121°09'6845.6
2014-Oct-17 06:00N 33°24' W 120°48'5940.9 190 / 111018.910.8 1.017.913.521.0
2014-Oct-17 04:33N 34°21' W 120°28'1111.6
2014-Oct-17 03:33N 34°19' W 120°14'1111.5
2014-Oct-17 02:33N 34°20' W 120°00'1111.3
2014-Oct-17 01:33N 34°22' W 119°47'5 4.8
2014-Oct-17 00:29N 34°24' W 119°41'0 0.0
2014-Oct-16 23:31N 34°24' W 119°41'0 0.0
2014-Oct-16 22:25N 34°24' W 119°41'0 0.0
2014-Oct-16 21:33N 34°24' W 119°41'0 0.0
2014-Oct-16 20:33N 34°24' W 119°41'0 0.0
2014-Oct-16 19:33N 34°24' W 119°41'0 0.0
2014-Oct-16 18:32N 34°24' W 119°41'0 0.1
2014-Oct-16 17:33N 34°24' W 119°41'0 0.0
2014-Oct-16 16:33N 34°24' W 119°41'0 0.0
2014-Oct-16 15:33N 34°24' W 119°41'0 0.0
2014-Oct-16 14:33N 34°24' W 119°41'0 0.0
2014-Oct-16 13:33N 34°24' W 119°41'7 7.2
2014-Oct-16 12:33N 34°17' W 119°39'1111.5
2014-Oct-16 11:33N 34°08' W 119°30'1513.8
2014-Oct-16 10:27N 34°03' W 119°13'6415.7
2014-Oct-16 06:22N 33°12' W 118°27'1416.4
2014-Oct-16 05:31N 33°03' W 118°14'1616.6
2014-Oct-16 04:33N 32°55' W 117°57'1716.6
2014-Oct-16 03:33N 32°47' W 117°40'1515.4
2014-Oct-16 02:33N 32°40' W 117°24'8 8.2
2014-Oct-16 01:33N 32°41' W 117°14'3 3.3
2014-Oct-16 00:33N 32°43' W 117°10'0 0.0
2014-Oct-15 23:33N 32°43' W 117°10'0 0.0
2014-Oct-15 22:32N 32°43' W 117°10'0 0.0
2014-Oct-15 21:32N 32°43' W 117°10'0 0.0
2014-Oct-15 20:31N 32°43' W 117°10'0 0.0
2014-Oct-15 19:31N 32°43' W 117°10'0 0.0
2014-Oct-15 18:33N 32°43' W 117°10'0 0.0
2014-Oct-15 17:33N 32°43' W 117°10'0 0.0
2014-Oct-15 16:33N 32°43' W 117°10'0 0.0
2014-Oct-15 15:32N 32°43' W 117°10'0 0.0
2014-Oct-15 14:32N 32°43' W 117°10'1 1.0
2014-Oct-15 13:33N 32°43' W 117°12'9 8.8
2014-Oct-15 12:33N 32°35' W 117°16'1312.7
2014-Oct-15 11:31N 32°27' W 117°29'1111.8
2014-Oct-15 10:33N 32°21' W 117°40'1110.9
2014-Oct-15 09:33N 32°18' W 117°53'10 9.3
2014-Oct-15 08:31N 32°26' W 117°59'1211.2
2014-Oct-15 07:29N 32°38' W 118°00'1011.2
2014-Oct-15 06:33N 32°48' W 118°01'1111.2
2014-Oct-15 05:33N 32°59' W 118°03'1111.0
2014-Oct-15 04:33N 33°10' W 118°04'1210.4
2014-Oct-15 03:25N 33°22' W 118°07'  
Track history (hours):
 
Tides and Currents Weather Stations Pressure Air Temp Water Temp Dewpoint Dewpoint Depression Visibility Wind Speed Wind Dir Waves Ship Positions

Star Princess

Operator: Princess Cruises

Last reported at 2014-Oct-25 02:29 UTC. Time now 2014-Oct-25 05:33 UTC.
Position N 36°12' W 123°44'.

Length 289.6 m; beam 36 m; draft 8.4 m.

Type: Ship. MMSI: 310361000.

Date/timePositionNaut miles runAvg speedWind from/ knotsBaromVisibWave heightAir tempDewpointWater temp
2014-Oct-25 02:29N 36°12' W 123°44'1212.9
2014-Oct-25 01:33N 36°04' W 123°54'1212.0
2014-Oct-25 00:33N 35°53' W 124°00'1212.5
2014-Oct-24 23:33N 35°41' W 124°00'1212.3
2014-Oct-24 22:33N 35°28' W 124°00'1312.5
2014-Oct-24 21:32N 35°15' W 123°60'1312.6
2014-Oct-24 20:31N 35°03' W 123°60'1312.4
2014-Oct-24 19:30N 34°50' W 123°60'10111.2
2014-Oct-24 10:30N 34°30' W 121°59'1212.5
2014-Oct-24 09:32N 34°29' W 121°45'1612.3
2014-Oct-24 08:13N 34°30' W 121°25'812.1
2014-Oct-24 07:32N 34°30' W 121°15'1212.5
2014-Oct-24 06:33N 34°28' W 121°00'1119.4
2014-Oct-24 06:00N 34°24' W 120°48'2 4.7 260 / 111018.410.8 18.016.218.0
2014-Oct-24 05:33N 34°25' W 120°46'1212.4
2014-Oct-24 04:33N 34°22' W 120°31'1212.5
2014-Oct-24 03:33N 34°19' W 120°16'1312.6
2014-Oct-24 02:33N 34°20' W 120°01'1312.6
2014-Oct-24 01:33N 34°22' W 119°46'5 4.5
2014-Oct-24 00:31N 34°24' W 119°41'0 0.0
2014-Oct-23 23:33N 34°24' W 119°41'0 0.0
2014-Oct-23 22:33N 34°24' W 119°41'0 0.0
2014-Oct-23 21:32N 34°24' W 119°41'0 0.0
2014-Oct-23 20:29N 34°24' W 119°41'0 0.0
2014-Oct-23 19:31N 34°24' W 119°41'0 0.0
2014-Oct-23 18:31N 34°24' W 119°41'0 0.0
2014-Oct-23 17:31N 34°24' W 119°41'0 0.0
2014-Oct-23 16:33N 34°24' W 119°41'0 0.0
2014-Oct-23 15:33N 34°24' W 119°41'0 0.0
2014-Oct-23 14:34N 34°24' W 119°41'2 1.7
2014-Oct-23 13:33N 34°22' W 119°40'1212.0
2014-Oct-23 12:33N 34°11' W 119°36'1212.2
2014-Oct-23 11:34N 34°06' W 119°22'1212.4
2014-Oct-23 10:33N 34°01' W 119°09'1111.2
2014-Oct-23 09:34N 33°51' W 119°03'1414.4
2014-Oct-23 08:33N 33°38' W 118°54'1717.0
2014-Oct-23 07:33N 33°24' W 118°43'1716.6
2014-Oct-23 06:33N 33°14' W 118°28'1119.7
2014-Oct-23 06:00N 33°06' W 118°18'511.9 170 / 141018.410.8 20.218.122.0
2014-Oct-23 05:33N 33°03' W 118°13'1616.4
2014-Oct-23 04:33N 32°55' W 117°56'1616.4
2014-Oct-23 03:33N 32°47' W 117°39'1515.4
2014-Oct-23 02:33N 32°39' W 117°23'8 7.8
2014-Oct-23 01:33N 32°41' W 117°14'3 3.2
2014-Oct-23 00:32N 32°43' W 117°10'0 0.0
2014-Oct-22 23:31N 32°43' W 117°10'0 0.0
2014-Oct-22 22:31N 32°43' W 117°10'0 0.0
2014-Oct-22 21:33N 32°43' W 117°10'0 0.0
2014-Oct-22 20:33N 32°43' W 117°10'0 0.0
2014-Oct-22 19:32N 32°43' W 117°10'0 0.0
2014-Oct-22 18:32N 32°43' W 117°10'0 0.0
2014-Oct-22 17:32N 32°43' W 117°10'0 0.0
2014-Oct-22 16:28N 32°43' W 117°10'0 0.0
2014-Oct-22 15:31N 32°43' W 117°10'0 0.0
2014-Oct-22 14:31N 32°43' W 117°10'0 0.1
2014-Oct-22 13:33N 32°43' W 117°11'7 7.0
2014-Oct-22 12:33N 32°37' W 117°15'1111.0
2014-Oct-22 11:33N 32°29' W 117°24'1212.4
2014-Oct-22 10:33N 32°22' W 117°36'1211.4
2014-Oct-22 09:31N 32°19' W 117°49'8 8.3
2014-Oct-22 08:33N 32°22' W 117°58'1211.3
2014-Oct-22 07:30N 32°34' W 117°60'1111.5
2014-Oct-22 06:33N 32°44' W 118°01'1111.4
2014-Oct-22 05:33N 32°56' W 118°02'1211.6
2014-Oct-22 04:33N 33°07' W 118°03'1111.3
2014-Oct-22 03:33N 33°18' W 118°06'1211.5
2014-Oct-22 02:33N 33°29' W 118°11'1111.1
2014-Oct-22 01:33N 33°40' W 118°12'5 4.7
2014-Oct-22 00:32N 33°45' W 118°11'0 0.0
2014-Oct-21 23:32N 33°45' W 118°11'0 0.0
2014-Oct-21 22:28N 33°45' W 118°11'0 0.0
2014-Oct-21 21:28N 33°45' W 118°11'0 0.0
2014-Oct-21 20:28N 33°45' W 118°11'0 0.0
2014-Oct-21 19:33N 33°45' W 118°11'0 0.0
2014-Oct-21 18:33N 33°45' W 118°11'0 0.0
2014-Oct-21 17:29N 33°45' W 118°11'0 0.0
2014-Oct-21 16:32N 33°45' W 118°11'0 0.0
2014-Oct-21 15:31N 33°45' W 118°11'0 0.0
2014-Oct-21 14:34N 33°45' W 118°11'0 0.2
2014-Oct-21 13:33N 33°45' W 118°11'5 5.5
2014-Oct-21 12:33N 33°39' W 118°10'1312.4
2014-Oct-21 11:28N 33°27' W 118°06'1212.9
2014-Oct-21 10:32N 33°15' W 118°01'1212.3
2014-Oct-21 09:33N 33°04' W 117°55'1212.2
2014-Oct-21 08:33N 32°53' W 117°49'1212.1
2014-Oct-21 07:33N 32°41' W 117°49'1212.3
2014-Oct-21 06:33N 32°29' W 117°45'1323.7
2014-Oct-21 06:00N 32°18' W 117°36'2 3.6 210 / 71017.010.8 19.816.522.0
2014-Oct-21 05:32N 32°18' W 117°38'19 0.9
2014-Oct-20 09:08N 31°59' W 117°37'814.3
2014-Oct-20 08:33N 32°03' W 117°46'1414.3
2014-Oct-20 07:33N 32°09' W 118°01'1414.0
2014-Oct-20 06:34N 32°15' W 118°16'1414.2
2014-Oct-20 05:33N 32°21' W 118°31'1414.2
2014-Oct-20 04:33N 32°27' W 118°47'1414.3
2014-Oct-20 03:33N 32°32' W 119°02'1414.4
2014-Oct-20 02:33N 32°39' W 119°17'1414.4
2014-Oct-20 01:33N 32°45' W 119°33'1414.5
2014-Oct-20 00:33N 32°51' W 119°48'1414.0
2014-Oct-19 23:33N 33°01' W 120°00'1414.1
2014-Oct-19 22:33N 33°12' W 120°12'1514.5
2014-Oct-19 21:33N 33°22' W 120°24'1514.4
2014-Oct-19 20:33N 33°33' W 120°36'22914.1
2014-Oct-19 04:18N 36°54' W 122°51'1114.1
2014-Oct-19 03:33N 37°04' W 122°49'1614.2
2014-Oct-19 02:28N 37°19' W 122°44'1314.4
2014-Oct-19 01:33N 37°32' W 122°43'1313.3
2014-Oct-19 00:33N 37°45' W 122°40'1212.1
2014-Oct-18 23:33N 37°49' W 122°25'1 1.2
2014-Oct-18 22:32N 37°48' W 122°24'0 0.0
2014-Oct-18 21:32N 37°48' W 122°24'0 0.0
2014-Oct-18 20:31N 37°48' W 122°24'0 0.0
2014-Oct-18 19:31N 37°48' W 122°24'0 0.0
2014-Oct-18 18:30N 37°48' W 122°24'0 0.0
2014-Oct-18 17:32N 37°48' W 122°24'0 0.0
2014-Oct-18 16:28N 37°48' W 122°24'0 0.0
2014-Oct-18 15:31N 37°48' W 122°24'0 0.0
2014-Oct-18 14:33N 37°48' W 122°24'0 0.0
2014-Oct-18 13:33N 37°48' W 122°24'0 0.3
2014-Oct-18 12:33N 37°49' W 122°24'1111.0
2014-Oct-18 11:33N 37°46' W 122°38'1110.9
2014-Oct-18 10:32N 37°35' W 122°40'1212.5
2014-Oct-18 09:33N 37°23' W 122°40'1312.4
2014-Oct-18 08:32N 37°10' W 122°42'1212.3
2014-Oct-18 07:33N 36°59' W 122°47'1212.3
2014-Oct-18 06:33N 36°49' W 122°57'813.6
2014-Oct-18 06:00N 36°42' W 123°00'613.8 200 / 271018.710.8 17.616.618.0
2014-Oct-18 05:33N 36°40' W 123°07'1212.3
2014-Oct-18 04:33N 36°31' W 123°18'1812.4
2014-Oct-18 03:05N 36°18' W 123°34'1912.4
2014-Oct-18 01:33N 36°05' W 123°50'1311.5
2014-Oct-18 00:26N 35°52' W 123°55'1112.5
2014-Oct-17 23:32N 35°41' W 123°53'1212.5
2014-Oct-17 22:32N 35°29' W 123°52'1312.3
2014-Oct-17 21:31N 35°17' W 123°50'89 9.5
2014-Oct-17 12:08N 34°30' W 122°17'2212.3
2014-Oct-17 10:21N 34°30' W 121°50'1012.5
2014-Oct-17 09:33N 34°30' W 121°38'1111.5
2014-Oct-17 08:33N 34°30' W 121°24'1311.8
2014-Oct-17 07:29N 34°30' W 121°09'6845.6
2014-Oct-17 06:00N 33°24' W 120°48'5940.9 190 / 111018.910.8 1.017.913.521.0
2014-Oct-17 04:33N 34°21' W 120°28'1111.6
2014-Oct-17 03:33N 34°19' W 120°14'1111.5
2014-Oct-17 02:33N 34°20' W 120°00'1111.3
2014-Oct-17 01:33N 34°22' W 119°47'5 4.8
2014-Oct-17 00:29N 34°24' W 119°41'0 0.0
2014-Oct-16 23:31N 34°24' W 119°41'0 0.0
2014-Oct-16 22:25N 34°24' W 119°41'0 0.0
2014-Oct-16 21:33N 34°24' W 119°41'0 0.0
2014-Oct-16 20:33N 34°24' W 119°41'0 0.0
2014-Oct-16 19:33N 34°24' W 119°41'0 0.0
2014-Oct-16 18:32N 34°24' W 119°41'0 0.1
2014-Oct-16 17:33N 34°24' W 119°41'0 0.0
2014-Oct-16 16:33N 34°24' W 119°41'0 0.0
2014-Oct-16 15:33N 34°24' W 119°41'0 0.0
2014-Oct-16 14:33N 34°24' W 119°41'0 0.0
2014-Oct-16 13:33N 34°24' W 119°41'7 7.2
2014-Oct-16 12:33N 34°17' W 119°39'1111.5
2014-Oct-16 11:33N 34°08' W 119°30'1513.8
2014-Oct-16 10:27N 34°03' W 119°13'6415.7
2014-Oct-16 06:22N 33°12' W 118°27'1416.4
2014-Oct-16 05:31N 33°03' W 118°14'1616.6
2014-Oct-16 04:33N 32°55' W 117°57'1716.6
2014-Oct-16 03:33N 32°47' W 117°40'1515.4
2014-Oct-16 02:33N 32°40' W 117°24'8 8.2
2014-Oct-16 01:33N 32°41' W 117°14'3 3.3
2014-Oct-16 00:33N 32°43' W 117°10'0 0.0
2014-Oct-15 23:33N 32°43' W 117°10'0 0.0
2014-Oct-15 22:32N 32°43' W 117°10'0 0.0
2014-Oct-15 21:32N 32°43' W 117°10'0 0.0
2014-Oct-15 20:31N 32°43' W 117°10'0 0.0
2014-Oct-15 19:31N 32°43' W 117°10'0 0.0
2014-Oct-15 18:33N 32°43' W 117°10'0 0.0
2014-Oct-15 17:33N 32°43' W 117°10'0 0.0
2014-Oct-15 16:33N 32°43' W 117°10'0 0.0
2014-Oct-15 15:32N 32°43' W 117°10'0 0.0
2014-Oct-15 14:32N 32°43' W 117°10'1 1.0
2014-Oct-15 13:33N 32°43' W 117°12'9 8.8
2014-Oct-15 12:33N 32°35' W 117°16'1312.7
2014-Oct-15 11:31N 32°27' W 117°29'1111.8
2014-Oct-15 10:33N 32°21' W 117°40'1110.9
2014-Oct-15 09:33N 32°18' W 117°53'10 9.3
2014-Oct-15 08:31N 32°26' W 117°59'1211.2
2014-Oct-15 07:29N 32°38' W 118°00'1011.2
2014-Oct-15 06:33N 32°48' W 118°01'1111.2
2014-Oct-15 05:33N 32°59' W 118°03'1111.0
2014-Oct-15 04:33N 33°10' W 118°04'1210.4
2014-Oct-15 03:25N 33°22' W 118°07'  

Dump ship's entire track history